Hourly Weather Bolgrad

Today, 24 September, Thursday

Time Temperature Precipitation Wind Pressure Humidity
00:00 +16°C° 0 mm 2 mps 754 mmHg 85%
01:00 +16°C° 0 mm 2 mps 754 mmHg 86%
02:00 +16°C° 0 mm 2 mps 754 mmHg 86%
03:00 +16°C° 0 mm 2 mps 754 mmHg 87%
04:00 +16°C° 0 mm 2 mps 754 mmHg 87%
05:00 +16°C° 0 mm 2 mps 754 mmHg 87%
06:00 +17°C° 0 mm 3 mps 754 mmHg 80%
07:00 +19°C° 0 mm 3 mps 754 mmHg 73%
08:00 +20°C° 0 mm 3 mps 754 mmHg 66%
09:00 +22°C° 0 mm 4 mps 754 mmHg 59%
10:00 +25°C° 0 mm 4 mps 754 mmHg 53%
11:00 +28°C° 0 mm 4 mps 754 mmHg 46%
12:00 +28°C° 0.1 mm 4 mps 754 mmHg 44%
13:00 +29°C° 0.1 mm 4 mps 753 mmHg 43%
14:00 +30°C° 0.1 mm 4 mps 753 mmHg 41%
15:00 +29°C° 0.2 mm 5 mps 753 mmHg 46%
16:00 +28°C° 0.2 mm 5 mps 753 mmHg 51%
17:00 +27°C° 0.2 mm 5 mps 752 mmHg 56%
18:00 +25°C° 0.5 mm 5 mps 753 mmHg 66%
19:00 +22°C° 0.5 mm 5 mps 753 mmHg 75%
20:00 +20°C° 0.5 mm 5 mps 753 mmHg 85%
21:00 +20°C° 0.1 mm 4 mps 753 mmHg 87%
22:00 +19°C° 0.1 mm 4 mps 753 mmHg 90%
23:00 +19°C° 0.1 mm 3 mps 753 mmHg 92%

Tomorrow, 25 September, Friday

Time Temperature Precipitation Wind Pressure Humidity
00:00 +19°C° 0 mm 3 mps 753 mmHg 93%
01:00 +19°C° 0 mm 3 mps 753 mmHg 94%
02:00 +19°C° 0 mm 2 mps 753 mmHg 94%
03:00 +18°C° 0 mm 2 mps 753 mmHg 94%
04:00 +18°C° 0 mm 2 mps 753 mmHg 94%
05:00 +18°C° 0 mm 2 mps 753 mmHg 94%
06:00 +19°C° 0 mm 2 mps 753 mmHg 89%
07:00 +20°C° 0 mm 3 mps 752 mmHg 85%
08:00 +21°C° 0 mm 3 mps 752 mmHg 80%
09:00 +24°C° 0 mm 3 mps 752 mmHg 69%
10:00 +27°C° 0 mm 4 mps 752 mmHg 58%
11:00 +29°C° 0 mm 4 mps 752 mmHg 46%
12:00 +30°C° 0 mm 5 mps 751 mmHg 44%
13:00 +30°C° 0 mm 6 mps 751 mmHg 41%
14:00 +32°C° 0 mm 6 mps 751 mmHg 39%
15:00 +29°C° 0.1 mm 6 mps 750 mmHg 44%
16:00 +28°C° 0.1 mm 6 mps 750 mmHg 49%
17:00 +26°C° 0.1 mm 6 mps 750 mmHg 54%
18:00 +24°C° 0 mm 6 mps 750 mmHg 60%
19:00 +23°C° 0 mm 6 mps 750 mmHg 66%
20:00 +21°C° 0 mm 6 mps 750 mmHg 72%
21:00 +21°C° 0 mm 6 mps 750 mmHg 75%
22:00 +21°C° 0 mm 5 mps 750 mmHg 78%
23:00 +20°C° 0 mm 5 mps 750 mmHg 81%

Day after tomorrow, 26 September, Saturday

Time Temperature Precipitation Wind Pressure Humidity
00:00 +20°C° 0 mm 5 mps 749 mmHg 83%
01:00 +20°C° 0 mm 4 mps 749 mmHg 84%
02:00 +19°C° 0 mm 4 mps 748 mmHg 86%
03:00 +19°C° 0 mm 4 mps 748 mmHg 87%
04:00 +19°C° 0 mm 4 mps 748 mmHg 88%
05:00 +19°C° 0 mm 5 mps 748 mmHg 89%
06:00 +20°C° 0 mm 5 mps 748 mmHg 84%
07:00 +21°C° 0 mm 6 mps 748 mmHg 80%
08:00 +22°C° 0 mm 7 mps 747 mmHg 76%
09:00 +24°C° 0 mm 7 mps 747 mmHg 66%
10:00 +27°C° 0 mm 8 mps 747 mmHg 56%
11:00 +29°C° 0 mm 8 mps 747 mmHg 46%
12:00 +29°C° 0 mm 8 mps 747 mmHg 44%
13:00 +29°C° 0 mm 9 mps 746 mmHg 42%
14:00 +31°C° 0 mm 9 mps 746 mmHg 40%
15:00 +29°C° 0 mm 9 mps 745 mmHg 46%
16:00 +28°C° 0 mm 9 mps 745 mmHg 52%
17:00 +26°C° 0 mm 9 mps 744 mmHg 58%
18:00 +24°C° 0.5 mm 9 mps 744 mmHg 65%
19:00 +23°C° 0.5 mm 8 mps 744 mmHg 72%
20:00 +22°C° 0.5 mm 8 mps 744 mmHg 80%
21:00 +22°C° 0.1 mm 8 mps 744 mmHg 76%
22:00 +22°C° 0.1 mm 8 mps 743 mmHg 72%
23:00 +23°C° 0.1 mm 8 mps 743 mmHg 69%

27 September, Sunday

Time Temperature Precipitation Wind Pressure Humidity
00:00 +23°C° 1.3 mm 8 mps 742 mmHg 70%
01:00 +23°C° 1.3 mm 7 mps 742 mmHg 72%
02:00 +23°C° 1.3 mm 7 mps 741 mmHg 74%
03:00 +23°C° 1.5 mm 7 mps 741 mmHg 73%
04:00 +22°C° 1.5 mm 7 mps 741 mmHg 72%
05:00 +22°C° 1.5 mm 8 mps 741 mmHg 72%
06:00 +21°C° 0.1 mm 8 mps 741 mmHg 70%
07:00 +20°C° 0.1 mm 8 mps 742 mmHg 68%
08:00 +18°C° 0.1 mm 8 mps 742 mmHg 66%
09:00 +20°C° 0 mm 8 mps 743 mmHg 59%
10:00 +21°C° 0 mm 9 mps 744 mmHg 53%
11:00 +22°C° 0 mm 9 mps 745 mmHg 46%
12:00 +22°C° 0 mm 10 mps 745 mmHg 44%
13:00 +22°C° 0 mm 10 mps 746 mmHg 41%
14:00 +22°C° 0 mm 11 mps 747 mmHg 38%
15:00 +21°C° 0 mm 9 mps 747 mmHg 40%
16:00 +20°C° 0 mm 8 mps 748 mmHg 42%
17:00 +20°C° 0 mm 7 mps 749 mmHg 43%
18:00 +19°C° 0 mm 6 mps 749 mmHg 45%
19:00 +18°C° 0 mm 4 mps 750 mmHg 47%
20:00 +17°C° 0 mm 3 mps 751 mmHg 49%
21:00 +17°C° 0 mm 3 mps 752 mmHg 50%
22:00 +16°C° 0 mm 2 mps 752 mmHg 51%
23:00 +15°C° 0 mm 2 mps 753 mmHg 51%

28 September, Monday

Time Temperature Precipitation Wind Pressure Humidity
00:00 +15°C° 0 mm 2 mps 753 mmHg 52%
01:00 +15°C° 0 mm 2 mps 753 mmHg 52%
02:00 +14°C° 0 mm 2 mps 753 mmHg 53%
03:00 +14°C° 0 mm 1 mps 754 mmHg 53%
04:00 +14°C° 0 mm 1 mps 754 mmHg 54%
05:00 +14°C° 0 mm 1 mps 754 mmHg 54%
06:00 +15°C° 0 mm 2 mps 754 mmHg 52%
07:00 +17°C° 0 mm 3 mps 754 mmHg 49%
08:00 +18°C° 0 mm 4 mps 754 mmHg 47%
09:00 +20°C° 0 mm 5 mps 753 mmHg 45%
10:00 +23°C° 0 mm 6 mps 753 mmHg 43%
11:00 +26°C° 0 mm 7 mps 753 mmHg 41%
12:00 +27°C° 0 mm 7 mps 753 mmHg 39%
13:00 +27°C° 0 mm 8 mps 752 mmHg 38%
14:00 +28°C° 0 mm 8 mps 752 mmHg 36%
15:00 +27°C° 0 mm 8 mps 752 mmHg 41%
16:00 +26°C° 0 mm 8 mps 752 mmHg 46%
17:00 +24°C° 0 mm 9 mps 751 mmHg 52%
18:00 +23°C° 0 mm 8 mps 751 mmHg 56%
19:00 +22°C° 0 mm 8 mps 751 mmHg 61%
20:00 +21°C° 0 mm 8 mps 751 mmHg 66%
21:00 +21°C° 0 mm 8 mps 751 mmHg 69%
22:00 +21°C° 0 mm 8 mps 751 mmHg 72%
23:00 +21°C° 0 mm 8 mps 751 mmHg 76%

29 September, Tuesday

Time Temperature Precipitation Wind Pressure Humidity
00:00 +21°C° 0.1 mm 8 mps 750 mmHg 76%
01:00 +21°C° 0.1 mm 8 mps 749 mmHg 76%
02:00 +21°C° 0.1 mm 8 mps 749 mmHg 76%
03:00 +20°C° 0.1 mm 7 mps 749 mmHg 74%
04:00 +20°C° 0.1 mm 7 mps 748 mmHg 73%
05:00 +18°C° 0.1 mm 7 mps 748 mmHg 72%
06:00 +17°C° 1.6 mm 7 mps 748 mmHg 75%
07:00 +17°C° 1.6 mm 7 mps 748 mmHg 79%
08:00 +16°C° 1.6 mm 6 mps 748 mmHg 83%
09:00 +17°C° 0 mm 7 mps 748 mmHg 73%
10:00 +18°C° 0 mm 7 mps 748 mmHg 64%
11:00 +21°C° 0 mm 7 mps 748 mmHg 54%
12:00 +21°C° 0 mm 7 mps 748 mmHg 51%
13:00 +21°C° 0 mm 7 mps 749 mmHg 48%
14:00 +21°C° 0 mm 7 mps 749 mmHg 45%
15:00 +20°C° 0.1 mm 7 mps 749 mmHg 46%
16:00 +18°C° 0.1 mm 7 mps 749 mmHg 48%
17:00 +17°C° 0.1 mm 7 mps 750 mmHg 49%
18:00 +16°C° 0 mm 6 mps 750 mmHg 50%
19:00 +15°C° 0 mm 6 mps 750 mmHg 51%
20:00 +15°C° 0 mm 5 mps 751 mmHg 52%
21:00 +15°C° 0 mm 5 mps 751 mmHg 53%
22:00 +14°C° 0 mm 4 mps 751 mmHg 53%
23:00 +14°C° 0 mm 3 mps 751 mmHg 54%
Show more